Retour au catalogue

STARLINK-4327

ActifCommunicationsSSO
NORAD 53079·PAYLOAD·🇺🇸 United States

Lancé Jul 11, 2022 depuis Vandenberg Space Force Base

Loading…

Prochains Passages (prochaines 24 heures)

TLE

FraisSource: CelesTrak SupGP

Époque: Sep 14, 2026, 22:10 UTC

1 53079C 22077AN  26257.92409722  .00061167  00000+0  18986-2 0  2570
2 53079  97.2857  73.6741 0001453  92.4562  11.5989 15.33410606    16

Suivez STARLINK-4327 en temps réel avec AllMySat

Download on the App Store